Morelia, Mexico

12:40 PM CDT on April 19, 2018 (GMT -0500)
Gen Francisco J Mujica International

Weather History for MMMM - September, 2013

Change the Weather History Date:

Tuesday, September 17, 2013

  Actual Average Record
Temperature  
Mean Temperature 66 °F -  
Max Temperature 82 °F 76 °F 84 °F (2016)
Min Temperature 51 °F 54 °F 51 °F (1999)
Cooling Degree Days 2    
Growing Degree Days 16 (Base 50)    
Moisture  
Dew Point 58 °F    
Average Humidity 79    
Maximum Humidity 100    
Minimum Humidity 40    
Precipitation  
Precipitation 0.00 in 0.11 in - ()
Sea Level Pressure  
Sea Level Pressure 29.93 in    
Wind  
Wind Speed 3 mph ()    
Max Wind Speed 10 mph    
Max Gust Speed -    
Visibility 7.3 miles    
Events      
Averages and records for this station are not official NWS values.
T = Trace of Precipitation, MM = Missing Value Source: Averaged Metar Reports

Daily Weather History Graph

Daily Weather History Graph

Search for Another Location

Airport or City:

Astronomy

Sep. 17, 2013 Rise Set
Actual Time 7:32 AM CDT 7:44 PM CDT
Civil Twilight 7:10 AM CDT 8:06 PM CDT
Nautical Twilight 6:44 AM CDT 8:32 PM CDT
Astronomical Twilight 6:18 AM CDT 8:57 PM CDT
Moon 6:26 PM CDT (9/17) 5:39 AM CDT (9/17)
Length of Visible Light 12h 56m
Length of Day
12h 12m
Waxing Gibbous, 96% of the Moon is Illuminated
Sep 17
Waxing Gibbous
Sep 19
Full
Sep 26
Last Quarter
Oct 4
New
Oct 11
First Quarter

Hourly Weather History & Observations

Time (CDT) Temp. Dew Point Humidity Pressure Visibility Wind Dir Wind Speed Gust Speed Precip Events Conditions
12:49 AM 60.8 °F 57.2 °F 88% 29.73 in 5.0 mi South 3.5 mph - N/A   Mostly Cloudy
12:50 AM 60 °F 57 °F 87% 29.81 in 5 mi WSW 2.2 mph - -   Partly Cloudy
1:46 AM 57.2 °F 55.4 °F 94% 30.15 in 5.0 mi WSW 3.5 mph - N/A   Mostly Cloudy
2:42 AM 57.2 °F 55.4 °F 94% 30.14 in 5.0 mi SW 8.1 mph - N/A   Mostly Cloudy
3:44 AM 55.4 °F 55.4 °F 100% 29.75 in 5.0 mi Calm Calm - N/A   Scattered Clouds
3:50 AM 57 °F 56 °F 95% 29.82 in 5 mi NW 2.2 mph - -  
4:41 AM 55.4 °F 53.6 °F 94% 30.12 in 5.0 mi Calm Calm - N/A   Scattered Clouds
5:41 AM 51.8 °F 51.8 °F 100% 30.13 in 5.0 mi Calm Calm - N/A   Scattered Clouds
6:45 AM 53.6 °F 53.6 °F 100% 29.81 in 6.0 mi Calm Calm - N/A   Partly Cloudy
6:50 AM 55 °F 54 °F 98% 29.85 in 6 mi SSW 2.2 mph - -  
7:46 AM 51.8 °F 51.8 °F 100% 30.16 in 6.0 mi Calm Calm - N/A   Scattered Clouds
8:51 AM 57.2 °F 55.4 °F 94% 30.17 in 8.0 mi Calm Calm - N/A   Mostly Cloudy
9:48 AM 62.6 °F 55.4 °F 77% 29.80 in 8.0 mi Calm Calm - N/A   Mostly Cloudy
9:55 AM 62 °F 58 °F 81% 29.88 in 6 mi SSE 2.2 mph - -   Partly Cloudy
10:46 AM 68.0 °F 59.0 °F 73% 30.18 in 8.0 mi SW 4.6 mph - N/A   Mostly Cloudy
11:45 AM 69.8 °F 60.8 °F 73% 30.17 in 8.0 mi WSW 3.5 mph - N/A   Mostly Cloudy
12:53 PM 73.4 °F 59.0 °F 61% 29.71 in 10.0 mi South 4.6 mph - N/A   Mostly Cloudy
12:55 PM 78 °F 61 °F 46% 29.82 in 7 mi SSW 2.2 mph - -   Partly Cloudy
1:52 PM 75.2 °F 57.2 °F 53% 30.12 in 10.0 mi South 5.8 mph - N/A   Mostly Cloudy
2:41 PM 77.0 °F 57.2 °F 50% 30.09 in 10.0 mi SSW 6.9 mph - N/A   Mostly Cloudy
3:47 PM 77.0 °F 59.0 °F 54% 29.64 in 10.0 mi SSE 9.2 mph - N/A   Mostly Cloudy
3:50 PM 81 °F 61 °F 40% 29.68 in 7 mi South 4.5 mph - -   Partly Cloudy
4:41 PM 77.0 °F 59.0 °F 54% 30.04 in 10.0 mi SW 6.9 mph - N/A   Mostly Cloudy
5:50 PM 73.4 °F 60.8 °F 65% 30.03 in 10.0 mi SSE 8.1 mph - N/A   Mostly Cloudy
6:44 PM 69.8 °F 59.0 °F 68% 29.63 in 10.0 mi South 9.2 mph - N/A   Mostly Cloudy
6:50 PM 70 °F 62 °F 70% 29.61 in 7 mi South 4.5 mph - -   Partly Cloudy
7:47 PM 66.2 °F 57.2 °F 73% 30.07 in 10.0 mi SSE 10.4 mph - N/A   Mostly Cloudy
8:44 PM 66.2 °F 59.0 °F 78% 30.09 in 8.0 mi SW 5.8 mph - N/A   Mostly Cloudy
9:45 PM 62.6 °F 59.0 °F 88% 29.70 in 8.0 mi Calm Calm - N/A   Mostly Cloudy
9:50 PM 65 °F 60 °F 78% 29.67 in 5 mi South 2.2 mph - -   Partly Cloudy
10:44 PM 62.6 °F 60.8 °F 94% 30.15 in 8.0 mi Calm Calm - N/A   Mostly Cloudy
11:46 PM 62.6 °F 60.8 °F 94% 30.16 in 8.0 mi West 4.6 mph - N/A   Overcast